Tucson Davis Monthan, AZ

8:31 PM MST on June 24, 2018 (GMT -0700)
Davis-Monthan Air Force Base

Weather History for KDMA - December, 2017

Change the Weather History Date:

Wednesday, December 6, 2017

  Actual Average Record
Temperature  
Mean Temperature 60 °F -  
Max Temperature 73 °F 68 °F 82 °F (1970)
Min Temperature 47 °F 40 °F 21 °F (1960)
Degree Days  
Heating Degree Days 5    
Growing Degree Days 10 (Base 50)    
Moisture  
Dew Point 34 °F    
Average Humidity 43    
Maximum Humidity 62    
Minimum Humidity 25    
Precipitation  
Precipitation 0.00 in - - ()
Sea Level Pressure  
Sea Level Pressure 30.04 in    
Wind  
Wind Speed 4 mph (SE)    
Max Wind Speed 9 mph    
Max Gust Speed -    
Visibility 10 miles    
Events      
Averages and records for this station are not official NWS values.
T = Trace of Precipitation, MM = Missing Value Source: NWS Daily Summary

Daily Weather History Graph

Daily Weather History Graph

Search for Another Location

Airport or City:

Astronomy

Dec. 06, 2017 Rise Set
Actual Time 7:10 AM MST 5:18 PM MST
Civil Twilight 6:43 AM MST 5:45 PM MST
Nautical Twilight 6:13 AM MST 6:15 PM MST
Astronomical Twilight 5:43 AM MST 6:45 PM MST
Moon 8:57 PM MST (12/6) 10:07 AM MST (12/6)
Length of Visible Light 11h 01m
Length of Day
10h 07m
Waning Gibbous, 86% of the Moon is Illuminated
Dec 6
Waning Gibbous
Dec 10
Last Quarter
Dec 17
New
Dec 26
First Quarter
Jan 1
Full

Hourly Weather History & Observations

Time (MST) Temp. Dew Point Humidity Pressure Visibility Wind Dir Wind Speed Gust Speed Precip Events Conditions
12:58 AM 51.8 °F 32.2 °F 47% 30.06 in 10.0 mi SSE 4.6 mph - N/A   Mostly Cloudy
1:58 AM 51.4 °F 30.7 °F 45% 30.05 in 10.0 mi Calm Calm - N/A   Overcast
2:58 AM 51.4 °F 32.9 °F 49% 30.05 in 10.0 mi SE 6.9 mph - N/A   Mostly Cloudy
3:58 AM 49.5 °F 32.5 °F 52% 30.06 in 10.0 mi Calm Calm - N/A   Clear
4:58 AM 48.9 °F 33.4 °F 55% 30.04 in 10.0 mi Calm Calm - N/A   Mostly Cloudy
5:58 AM 47.7 °F 34.0 °F 59% 30.06 in 10.0 mi South 3.5 mph - N/A   Overcast
6:58 AM 49.3 °F 36.9 °F 62% 30.06 in 10.0 mi Calm Calm - N/A   Mostly Cloudy
7:58 AM 50.4 °F 36.5 °F 59% 30.07 in 10.0 mi SSE 3.5 mph - N/A   Partly Cloudy
8:58 AM 53.4 °F 37.2 °F 54% 30.09 in 10.0 mi ESE 8.1 mph - N/A   Overcast
9:58 AM 62.1 °F 32.5 °F 33% 30.09 in 10.0 mi SE 8.1 mph - N/A   Mostly Cloudy
10:58 AM 64.9 °F 32.7 °F 30% 30.07 in 10.0 mi Calm Calm - N/A   Clear
11:58 AM 67.6 °F 35.1 °F 30% 30.03 in 10.0 mi North 3.5 mph - N/A   Clear
12:58 PM 70.0 °F 35.4 °F 28% 30.00 in 10.0 mi NNE 4.6 mph - N/A   Mostly Cloudy
1:58 PM 73.8 °F 35.8 °F 25% 29.98 in 10.0 mi NNE 8.1 mph - N/A   Partly Cloudy
2:58 PM 72.9 °F 34.9 °F 25% 29.97 in 10.0 mi Calm Calm - N/A   Clear
3:58 PM 70.5 °F 34.9 °F 27% 29.98 in 10.0 mi NNW 8.1 mph - N/A   Clear
4:58 PM 67.3 °F 35.6 °F 31% 29.99 in 10.0 mi NW 9.2 mph - N/A   Clear
5:58 PM 62.8 °F 35.4 °F 36% 30.01 in 10.0 mi WNW 9.2 mph - N/A   Clear
6:58 PM 59.7 °F 35.4 °F 40% 30.03 in 10.0 mi WNW 4.6 mph - N/A   Clear
7:58 PM 57.4 °F 33.8 °F 41% 30.04 in 10.0 mi NW 3.5 mph - N/A   Clear
8:58 PM 54.0 °F 34.2 °F 47% 30.04 in 10.0 mi SSE 5.8 mph - N/A   Clear
9:58 PM 52.0 °F 34.3 °F 51% 30.05 in 10.0 mi SE 4.6 mph - N/A   Clear
10:58 PM 52.0 °F 34.9 °F 52% 30.05 in 10.0 mi South 6.9 mph - N/A   Clear
11:58 PM 50.7 °F 34.2 °F 53% 30.05 in 10.0 mi South 8.1 mph - N/A   Partly Cloudy